[[[{"header":{"parameterUnit":"kt","parameterCategory":2,"dx":1,"dy":1,"la1":30.253999710083008,"la2":30.299108505249023,"lo1":-89.0895004272461,"lo2":-89.04439544677734,"nx":28,"ny":28,"refTime":"2022-09-21T21:00:00:Z","depth":0,"parameterNumber":1,"parameterNumberName":"U-component_of_WINDS"},"data":[2.2965,2.3021,2.3025,2.3091,2.3105,2.3151,2.3168,2.3191,2.321,2.3265,2.3297,2.3306,2.3326,2.3365,2.34,2.3403,2.3417,2.3436,2.3436,2.3351,2.3339,2.3328,2.3314,2.3439,2.3439,2.3524,2.3524,2.3525,2.2905,2.2919,2.2955,2.2992,2.3022,2.3007,2.3035,2.3061,2.3103,2.3126,2.3158,2.3206,2.3245,2.3258,2.3296,2.3322,2.3316,2.3332,2.333,2.3333,2.3242,2.3228,2.3336,2.3336,2.3336,2.3336,2.3336,2.3336,2.2796,2.283,2.2853,2.2892,2.2911,2.2935,2.2968,2.2977,2.3012,2.3051,2.3047,2.3094,2.3117,2.3163,2.3179,2.3215,2.3198,2.3216,2.322,2.3224,2.3229,2.3107,2.3222,2.3221,2.3221,2.3221,2.3221,0,2.2717,2.2717,2.2751,2.2786,2.2814,2.2841,2.2867,2.2887,2.2887,2.2915,2.2957,2.2981,2.3029,2.3068,2.3103,2.3116,2.3101,2.31,2.3112,2.3114,2.3112,2.3113,2.2965,2.3096,2.3095,2.3094,2.3093,2.3093,2.2607,2.2646,2.2671,2.2694,2.2708,2.2746,2.2769,2.2766,2.279,2.282,2.285,2.2889,2.292,2.2986,2.2995,2.3031,2.3024,2.3073,2.3029,2.303,2.3024,2.3021,2.3025,2.3082,2.3083,2.3084,2.3085,0,2.2545,2.2548,2.2608,2.2629,2.2635,2.2676,2.2693,2.2726,2.2731,2.2777,2.2788,2.2795,2.2835,2.2836,2.2882,2.2882,2.295,2.2942,2.2942,2.294,2.2985,2.298,2.3129,2.3148,2.3019,2.302,2.3022,0,2.2452,2.2503,2.2504,2.2539,2.2595,2.2589,2.2645,2.2654,2.2673,2.271,2.2693,2.2727,2.2723,2.2758,2.2756,2.2812,2.2821,2.2823,2.2822,2.2824,2.2824,2.2836,2.2829,2.2818,2.2817,2.2817,2.2816,0,2.2354,2.2413,2.247,2.2483,2.2509,2.2536,2.2548,2.2568,2.259,2.2619,2.2633,2.2667,2.2686,2.2713,2.271,2.268,2.2778,2.2736,2.2781,2.2781,2.2801,2.2799,2.2932,2.2815,2.2815,2.2815,2.2814,0,2.2278,2.2307,2.2388,2.2409,2.2425,2.2462,2.2494,2.2526,2.2549,2.255,2.2572,2.256,2.2609,2.2567,2.2633,2.2594,2.2614,2.262,2.2624,2.2627,2.2579,2.2653,2.278,2.2793,2.2632,2.263,2.2629,0,2.2165,2.2247,2.2242,2.2319,2.2356,2.2334,2.2375,2.2395,2.2401,2.2433,2.2439,2.2476,2.2445,2.2456,2.2489,2.2496,2.2547,2.2489,2.2536,2.2538,2.2531,2.2648,2.2666,2.2753,2.261,2.2612,2.2613,0,2.2077,2.2107,2.212,2.2136,2.216,2.2191,2.2239,2.2274,2.2296,2.232,2.2359,2.2411,2.239,2.2408,2.2401,2.2436,2.2512,2.2408,2.2408,2.2426,2.26,2.2617,2.2632,2.25,2.2502,2.2504,2.2598,0,2.1962,2.2003,2.204,2.2073,2.2097,2.2144,2.2143,2.2169,2.216,2.2163,2.2221,2.2236,2.2271,2.2287,2.2278,2.2356,2.2343,2.2319,2.2277,2.2354,2.2384,2.2397,2.2231,2.223,2.2229,2.2228,0,0,2.1853,2.191,2.1902,2.1946,2.1966,2.194,2.1991,2.2007,2.2039,2.2053,2.203,2.2105,2.2118,2.2188,2.2212,2.2226,2.224,2.2212,2.2317,2.2327,2.2336,2.2369,2.2382,2.2226,2.2226,2.2226,2.2225,0,2.181,2.1824,2.1874,2.189,2.1913,2.1914,2.1926,2.1944,2.1948,2.2003,2.1981,2.2015,2.2074,2.2091,2.2107,2.2204,2.2185,2.2215,2.2268,2.2307,2.2318,2.2328,2.2363,2.2375,2.2223,2.2223,2.2223,0,2.1723,2.1736,2.176,2.1802,2.1816,2.1855,2.1811,2.1853,2.1882,2.185,2.1905,2.1913,2.1935,2.2001,2.203,2.2009,2.2135,2.2095,2.2101,2.2104,2.2142,2.2155,2.2167,2.2007,2.2007,2.2006,0,0,2.1686,2.1723,2.1734,2.1792,2.1803,2.1804,2.1824,2.1816,2.1836,2.1844,2.1853,2.1873,2.1908,2.193,2.1962,2.2034,2.2038,2.2068,2.2078,2.2087,2.2094,2.2134,2.2147,2.2003,2.2003,2.2003,0,0,2.1668,2.1684,2.167,2.1737,2.1757,2.1772,2.1807,2.1791,2.1819,2.1813,2.1802,2.1806,2.1868,2.1876,2.1839,2.1947,2.1906,2.1914,2.1939,2.1952,2.1962,2.1958,2.1794,0,0,0,0,0,2.1622,2.1682,2.167,2.168,2.1732,2.1779,2.1785,2.1777,2.1748,2.1777,2.1782,2.1759,2.1854,2.1821,2.1831,2.1872,2.1967,2.1973,2.1979,2.2028,2.2042,2.2053,0,0,0,0,0,0,2.1627,2.164,2.1668,2.1685,2.1697,2.1776,2.1726,2.1725,2.1745,2.174,2.1759,2.176,2.1753,2.1814,2.1824,2.1863,2.1791,2.1969,2.1975,2.198,2.2033,2.2044,2.2053,0,0,0,0,0,2.163,2.164,2.1725,2.1684,2.1694,2.1697,2.1723,2.1722,2.1737,2.1745,2.1745,2.1729,2.1755,2.1762,2.182,2.1859,2.1784,2.1788,2.1973,2.1977,2.1981,2.2038,0,0,0,0,0,0,2.1632,2.164,2.1727,2.173,2.1661,2.1693,2.1697,2.172,2.1741,2.1742,2.1714,2.171,2.1756,2.1762,2.1768,2.1858,2.1778,2.1782,2.1785,2.1976,2.198,2.1983,0,0,0,0,0,0,2.1634,2.1642,2.1729,2.1699,2.1698,2.1689,2.1693,2.174,2.1742,2.1709,2.1706,2.1712,2.1747,2.1762,2.1767,2.1841,2.1774,2.1778,2.178,2.1782,2.1979,2.1982,0,0,0,0,0,0,2.1637,2.1645,2.1698,2.1698,2.1697,2.1727,2.173,2.1783,2.1717,2.1708,2.171,2.1708,2.1748,2.1752,2.1766,2.1838,2.184,2.1774,2.1777,2.1778,2.178,0,0,0,0,0,0,0,2.164,2.1594,2.1711,2.1697,2.1696,2.1755,2.1756,2.1757,2.1716,2.1714,2.1711,2.1709,2.1753,2.1757,2.1761,2.1836,0,0,2.1774,2.1776,0,0,0,0,0,0,0,0,2.1591,2.1594,2.1711,2.1712,2.1712,2.1755,2.1756,2.1757,2.1716,2.1714,2.1712,2.171,2.1754,2.1758,2.1761,0,0,0,0,0,0,0,0,0,0,0,0,0,0,0,2.1711,2.1712,0,2.1756,2.1756,2.1757,2.1715,2.1714,2.1712,2.171,2.1755,2.1758,2.1761,0,0,0,0,0,0,0,0,0,0,0,0,0,0,0,0,0,0,0,0,0,0,0,0,0,0,0,0,0,0,0,0,0,0,0,0,0,0,0,0,0,0,0,0,0,0,0,0,0,0,0,0,0,0,0,0,0,0,0,0,0,0,0,0,0,0,0,0,0]}],[{"header":{"parameterUnit":"kt","parameterCategory":2,"dx":1,"dy":1,"la1":30.253999710083008,"la2":30.299108505249023,"lo1":-89.0895004272461,"lo2":-89.04439544677734,"nx":28,"ny":28,"refTime":"2022-09-21T21:00:00:Z","depth":0,"parameterNumber":2,"parameterNumberName":"V-component_of_WINDS"},"data":[-3.119,-3.1294,-3.1318,-3.1449,-3.1492,-3.1586,-3.1627,-3.1682,-3.1733,-3.1847,-3.1917,-3.1952,-3.2012,-3.2102,-3.218,-3.2194,-3.2226,-3.2245,-3.2259,-3.2147,-3.2133,-3.212,-3.2098,-3.2251,-3.2252,-3.2371,-3.2372,-3.2373,-3.1108,-3.1152,-3.1228,-3.1317,-3.1383,-3.1378,-3.1449,-3.1504,-3.1587,-3.165,-3.172,-3.1823,-3.1907,-3.1961,-3.2046,-3.2096,-3.21,-3.2118,-3.2116,-3.2126,-3.2007,-3.1982,-3.2114,-3.2114,-3.2114,-3.2114,-3.2114,-3.2114,-3.0966,-3.1027,-3.1095,-3.1178,-3.1229,-3.1289,-3.1351,-3.1393,-3.1467,-3.1558,-3.1572,-3.1667,-3.1734,-3.1848,-3.1892,-3.1967,-3.1951,-3.1979,-3.1987,-3.1994,-3.1999,-3.1826,-3.1982,-3.1982,-3.1982,-3.1982,-3.1981,0,-3.087,-3.0886,-3.0959,-3.1041,-3.1102,-3.1167,-3.123,-3.127,-3.1311,-3.137,-3.1459,-3.1514,-3.1622,-3.1709,-3.1793,-3.1834,-3.1836,-3.1838,-3.1858,-3.1854,-3.184,-3.185,-3.1658,-3.1834,-3.1832,-3.1832,-3.1831,-3.183,-3.073,-3.0798,-3.088,-3.0928,-3.0969,-3.1047,-3.1098,-3.1129,-3.1182,-3.1265,-3.1318,-3.1404,-3.1475,-3.1612,-3.166,-3.1741,-3.1743,-3.1808,-3.1755,-3.1749,-3.1747,-3.1743,-3.1751,-3.1818,-3.182,-3.1821,-3.1822,0,-3.065,-3.0688,-3.08,-3.0874,-3.0895,-3.0965,-3.1029,-3.1091,-3.1123,-3.1214,-3.1237,-3.1288,-3.1375,-3.1412,-3.1517,-3.1534,-3.1652,-3.165,-3.1629,-3.1632,-3.1695,-3.1689,-3.1891,-3.1919,-3.1758,-3.1759,-3.1761,0,-3.0546,-3.0633,-3.0685,-3.0749,-3.0847,-3.0876,-3.0973,-3.1011,-3.1068,-3.114,-3.1147,-3.1214,-3.125,-3.1323,-3.1348,-3.145,-3.1469,-3.1489,-3.1495,-3.149,-3.1487,-3.1519,-3.1513,-3.1503,-3.1502,-3.1501,-3.15,0,-3.0417,-3.0546,-3.0649,-3.0685,-3.0773,-3.082,-3.0859,-3.0923,-3.0973,-3.1043,-3.1076,-3.1156,-3.12,-3.1262,-3.1293,-3.1256,-3.1418,-3.1374,-3.1439,-3.1438,-3.1474,-3.1471,-3.1639,-3.1499,-3.1498,-3.1498,-3.1498,0,-3.034,-3.041,-3.0552,-3.0626,-3.0658,-3.0725,-3.0806,-3.0872,-3.0939,-3.0959,-3.1015,-3.1024,-3.1115,-3.1069,-3.1195,-3.1139,-3.1182,-3.1208,-3.1214,-3.1225,-3.1173,-3.1265,-3.1419,-3.1438,-3.1235,-3.1233,-3.1231,0,-3.0183,-3.0336,-3.0362,-3.0496,-3.0572,-3.0576,-3.0651,-3.071,-3.0743,-3.0812,-3.0848,-3.0927,-3.09,-3.093,-3.0988,-3.1028,-3.1102,-3.1019,-3.1122,-3.1125,-3.1105,-3.1247,-3.1262,-3.1381,-3.1203,-3.1206,-3.1208,0,-3.0066,-3.0171,-3.0193,-3.0235,-3.0317,-3.038,-3.0466,-3.055,-3.0596,-3.066,-3.0734,-3.0845,-3.083,-3.0878,-3.0894,-3.0952,-3.1053,-3.0928,-3.093,-3.0951,-3.1191,-3.1205,-3.1225,-3.1051,-3.1054,-3.1057,-3.1186,0,-2.9944,-3.0024,-3.0085,-3.0176,-3.0231,-3.0316,-3.0354,-3.0406,-3.0416,-3.0449,-3.0557,-3.0614,-3.07,-3.0731,-3.0741,-3.0861,-3.0847,-3.0829,-3.0788,-3.088,-3.0924,-3.0941,-3.072,-3.0719,-3.0718,-3.0718,0,0,-2.9785,-2.9901,-2.9926,-3.001,-3.0058,-3.006,-3.0148,-3.0194,-3.0287,-3.0321,-3.0297,-3.0462,-3.0509,-3.0637,-3.0668,-3.0702,-3.0728,-3.0694,-3.0836,-3.0849,-3.0861,-3.0907,-3.0924,-3.0716,-3.0716,-3.0715,-3.0715,0,-2.9748,-2.9796,-2.9882,-2.9931,-3.0004,-3.0034,-3.0055,-3.0128,-3.0152,-3.0257,-3.0258,-3.0327,-3.0457,-3.0508,-3.0551,-3.0679,-3.0676,-3.0702,-3.0759,-3.0826,-3.084,-3.0852,-3.09,-3.0917,-3.0713,-3.0713,-3.0713,0,-2.9642,-2.9695,-2.974,-2.9847,-2.9895,-2.9972,-2.9938,-3.002,-3.0079,-3.0076,-3.0181,-3.0218,-3.0288,-3.0403,-3.0455,-3.0436,-3.0627,-3.0573,-3.0579,-3.0586,-3.0652,-3.0669,-3.0684,-3.0486,-3.0485,-3.0485,0,0,-2.9605,-2.9679,-2.9746,-2.9842,-2.9872,-2.9917,-2.9961,-2.9976,-3.0039,-3.0064,-3.0111,-3.0173,-3.0249,-3.0298,-3.0371,-3.0491,-3.0509,-3.0543,-3.0554,-3.0562,-3.0574,-3.0642,-3.0659,-3.0481,-3.0481,-3.0481,0,0,-2.9587,-2.9668,-2.9667,-2.9782,-2.9842,-2.9914,-2.9972,-2.9972,-3.0041,-3.0036,-3.0064,-3.0081,-3.0189,-3.0225,-3.0173,-3.0357,-3.0315,-3.0328,-3.033,-3.0344,-3.0354,-3.0344,-3.0146,0,0,0,0,0,-2.9569,-2.9658,-2.9656,-2.9681,-2.9815,-2.9915,-2.9933,-2.9958,-2.9928,-2.9973,-3.0013,-3.0006,-3.0203,-3.0157,-3.0182,-3.024,-3.0435,-3.0443,-3.0451,-3.0481,-3.0495,-3.0507,0,0,0,0,0,0,-2.9579,-2.961,-2.9654,-2.9729,-2.9759,-2.9913,-2.9868,-2.9877,-2.9924,-2.9921,-2.9998,-3.0008,-3.0032,-3.0146,-3.0168,-3.0223,-3.0139,-3.0438,-3.0445,-3.0451,-3.0486,-3.0498,-3.0508,0,0,0,0,0,-2.9587,-2.9612,-2.9821,-2.9728,-2.9754,-2.9809,-2.9865,-2.9872,-2.9909,-2.997,-2.9979,-2.9923,-3.0032,-3.0053,-3.0159,-3.0212,-3.0124,-3.0132,-3.0443,-3.0448,-3.0453,-3.0492,0,0,0,0,0,0,-2.9593,-2.962,-2.9827,-2.9836,-2.9696,-2.9801,-2.9818,-2.9868,-2.9955,-2.9965,-2.9896,-2.9892,-3.0034,-3.0049,-3.0065,-3.0207,-3.0112,-3.012,-3.0125,-3.0447,-3.0451,-3.0455,0,0,0,0,0,0,-2.9607,-2.9627,-2.9831,-2.979,-2.9794,-2.9793,-2.9809,-2.9903,-2.9956,-2.9876,-2.9876,-2.9893,-3.0011,-3.0048,-3.006,-3.0205,-3.0102,-3.011,-3.0115,-3.0119,-3.045,-3.0454,0,0,0,0,0,0,-2.9616,-2.9634,-2.9787,-2.9791,-2.9794,-2.9898,-2.9877,-3.0013,-2.992,-2.9872,-2.9912,-2.9909,-3.001,-3.0022,-3.0056,-3.0197,-3.0203,-3.0102,-3.0108,-3.0112,-3.0114,0,0,0,0,0,0,0,-2.9623,-2.9498,-2.9773,-2.9792,-2.9795,-2.9919,-2.9921,-2.9924,-2.9919,-2.9916,-2.9913,-2.991,-3.0058,-3.0066,-3.0075,-3.019,0,0,-3.0102,-3.0106,0,0,0,0,0,0,0,0,-2.9491,-2.9497,-2.9773,-2.9775,-2.9777,-2.9919,-2.9921,-2.9923,-2.9918,-2.9916,-2.9914,-2.9911,-3.006,-3.0067,-3.0074,0,0,0,0,0,0,0,0,0,0,0,0,0,0,0,-2.9774,-2.9775,0,-2.992,-2.9921,-2.9923,-2.9918,-2.9916,-2.9914,-2.9912,-3.0062,-3.0067,-3.0073,0,0,0,0,0,0,0,0,0,0,0,0,0,0,0,0,0,0,0,0,0,0,0,0,0,0,0,0,0,0,0,0,0,0,0,0,0,0,0,0,0,0,0,0,0,0,0,0,0,0,0,0,0,0,0,0,0,0,0,0,0,0,0,0,0,0,0,0,0]}]]]